TimeAKST,TemperatureF,Dew PointF,Humidity,Sea Level PressureIn,VisibilityMPH,Wind Direction,Wind SpeedMPH,Gust SpeedMPH,PrecipitationIn,Events,Conditions,WindDirDegrees,DateUTC
12:04 AM,26.6,26.6,100,30.39,1.2,South,6.9,-,0.00,,Overcast,190,2012-11-07 09:04:00
12:10 AM,26.6,26.6,100,30.40,1.0,South,6.9,-,0.00,,Overcast,190,2012-11-07 09:10:00
12:16 AM,26.6,26.6,100,30.39,1.2,South,5.8,-,0.00,,Overcast,180,2012-11-07 09:16:00
12:56 AM,26.6,26.6,100,30.40,1.0,South,6.9,-,0.00,,Overcast,170,2012-11-07 09:56:00
12:58 AM,27.0,27.0,100,30.44,1.0,South,5.8,-,0.00,,Overcast,170,2012-11-07 09:58:00
1:44 AM,28.4,28.4,100,30.40,0.8,South,5.8,-,0.00,,Overcast,170,2012-11-07 10:44:00
1:51 AM,28.4,28.4,100,30.40,1.0,South,5.8,-,0.00,,Overcast,170,2012-11-07 10:51:00
1:58 AM,28.0,28.0,100,30.44,1.0,South,6.9,-,0.00,,Overcast,170,2012-11-07 10:58:00
2:05 AM,28.4,28.4,100,30.40,0.8,South,6.9,-,0.00,,Overcast,170,2012-11-07 11:05:00
2:10 AM,28.4,28.4,100,30.40,0.5,South,5.8,-,0.00,Fog,Light Freezing Fog,170,2012-11-07 11:10:00
2:30 AM,28.4,28.4,100,30.40,0.8,SSE,8.1,-,0.00,,Overcast,160,2012-11-07 11:30:00
2:38 AM,28.4,28.4,100,30.39,1.0,SSE,9.2,-,0.00,,Overcast,150,2012-11-07 11:38:00
3:03 AM,28.4,28.4,100,30.40,0.8,South,8.1,-,0.00,,Overcast,170,2012-11-07 12:03:00
3:43 AM,28.4,26.6,93,30.41,1.0,ESE,6.9,-,0.00,,Overcast,120,2012-11-07 12:43:00
3:47 AM,26.6,26.6,100,30.41,1.5,SE,5.8,-,0.00,,Overcast,130,2012-11-07 12:47:00
3:52 AM,26.6,26.6,100,30.41,3.0,SE,6.9,-,0.00,Snow,Light Snow,130,2012-11-07 12:52:00
3:58 AM,27.0,26.1,96,30.45,4.0,ESE,6.9,-,0.00,Snow,Light Snow,120,2012-11-07 12:58:00
4:58 AM,26.1,26.1,100,30.45,5.0,East,5.8,-,0.00,Snow,Light Snow,90,2012-11-07 13:58:00
5:58 AM,26.1,26.1,100,30.45,5.0,ESE,8.1,-,0.00,,Overcast,110,2012-11-07 14:58:00
6:45 AM,26.6,26.6,100,30.42,2.5,ESE,6.9,-,0.00,,Overcast,120,2012-11-07 15:45:00
6:58 AM,26.1,26.1,100,30.45,1.8,SE,5.8,-,0.00,,Overcast,130,2012-11-07 15:58:00
7:10 AM,26.6,26.6,100,30.42,1.0,SE,5.8,-,0.00,Snow,Light Snow,130,2012-11-07 16:10:00
7:14 AM,26.6,26.6,100,30.42,0.8,SE,6.9,-,0.00,Snow,Light Snow,130,2012-11-07 16:14:00
7:25 AM,26.6,26.6,100,30.42,0.5,SE,4.6,-,0.00,Fog-Snow,Light Snow,130,2012-11-07 16:25:00
7:44 AM,26.6,26.6,100,30.42,0.2,SSE,6.9,-,0.00,Fog-Snow,Light Snow,150,2012-11-07 16:44:00
7:58 AM,26.1,25.0,96,30.46,0.2,SSE,5.8,-,0.00,Fog-Snow,Light Snow,160,2012-11-07 16:58:00
8:58 AM,25.0,25.0,100,30.47,0.2,SE,4.6,-,0.00,Fog-Snow,Light Snow,140,2012-11-07 17:58:00
9:58 AM,26.1,25.0,96,30.48,0.2,Calm,Calm,-,0.00,Fog,Light Freezing Fog,0,2012-11-07 18:58:00
10:32 AM,26.6,24.8,93,30.45,0.2,SE,3.5,-,0.00,Fog-Snow,Light Snow,140,2012-11-07 19:32:00
10:43 AM,26.6,26.6,100,30.45,0.5,Calm,Calm,-,0.00,Fog-Snow,Light Snow,0,2012-11-07 19:43:00
10:47 AM,26.6,26.6,100,30.45,0.8,Calm,Calm,-,0.00,Snow,Light Snow,0,2012-11-07 19:47:00
10:51 AM,26.6,26.6,100,30.45,1.2,Calm,Calm,-,0.00,Snow,Light Snow,0,2012-11-07 19:51:00
10:56 AM,26.6,26.6,100,30.45,3.0,Calm,Calm,-,0.00,Snow,Light Snow,0,2012-11-07 19:56:00
10:58 AM,26.1,26.1,100,30.49,3.0,East,3.5,-,0.00,Snow,Light Snow,100,2012-11-07 19:58:00
11:05 AM,26.6,26.6,100,30.45,1.8,East,3.5,-,0.00,Snow,Light Snow,100,2012-11-07 20:05:00
11:08 AM,26.6,26.6,100,30.45,0.8,ESE,4.6,-,0.00,Snow,Light Snow,110,2012-11-07 20:08:00
11:14 AM,26.6,26.6,100,30.45,0.5,ESE,4.6,-,0.00,Fog-Snow,Light Snow,110,2012-11-07 20:14:00
11:22 AM,26.6,26.6,100,30.45,0.8,East,4.6,-,0.00,Snow,Light Snow,90,2012-11-07 20:22:00
11:26 AM,26.6,26.6,100,30.45,0.5,East,4.6,-,0.00,Fog-Snow,Light Snow,90,2012-11-07 20:26:00
11:33 AM,26.6,26.6,100,30.45,1.0,ESE,4.6,-,0.00,Snow,Light Snow,110,2012-11-07 20:33:00
11:38 AM,26.6,26.6,100,30.45,1.8,ESE,4.6,-,0.00,Snow,Light Snow,120,2012-11-07 20:38:00
11:42 AM,26.6,26.6,100,30.45,3.0,ESE,4.6,-,0.00,Snow,Light Snow,110,2012-11-07 20:42:00
11:56 AM,26.6,26.6,100,30.45,2.0,SE,5.8,-,0.00,Snow,Light Snow,130,2012-11-07 20:56:00
11:58 AM,27.0,27.0,100,30.49,2.0,SE,8.1,-,0.00,Snow,Light Snow,130,2012-11-07 20:58:00
12:07 PM,26.6,26.6,100,30.45,3.0,SE,6.9,-,0.00,Snow,Light Snow,140,2012-11-07 21:07:00
12:33 PM,26.6,26.6,100,30.45,5.0,SE,9.2,-,0.00,Snow,Light Snow,140,2012-11-07 21:33:00
12:58 PM,26.1,26.1,100,30.49,6.0,SE,9.2,-,0.00,Snow,Light Snow,140,2012-11-07 21:58:00
1:58 PM,26.1,26.1,100,30.48,3.0,SE,6.9,-,0.00,Snow,Light Snow,130,2012-11-07 22:58:00
2:58 PM,26.1,26.1,100,30.48,4.0,SE,8.1,-,0.00,Snow,Light Snow,130,2012-11-07 23:58:00
3:54 PM,26.6,26.6,100,30.43,6.0,ESE,4.6,-,0.00,Snow,Light Snow,120,2012-11-08 00:54:00
3:58 PM,26.1,26.1,100,30.47,6.0,ESE,4.6,-,0.00,Snow,Light Snow,110,2012-11-08 00:58:00
4:11 PM,26.6,26.6,100,30.43,6.0,ESE,4.6,-,0.00,Snow,Light Snow,120,2012-11-08 01:11:00
4:58 PM,26.1,26.1,100,30.46,7.0,ESE,4.6,-,0.00,Snow,Light Snow,110,2012-11-08 01:58:00
5:48 PM,26.6,24.8,93,30.41,7.0,ESE,3.5,-,0.00,,Overcast,110,2012-11-08 02:48:00
5:57 PM,26.1,25.0,96,30.45,8.0,Calm,Calm,-,0.00,,Overcast,0,2012-11-08 02:57:00
6:58 PM,25.0,25.0,100,30.44,8.0,SSE,3.5,-,0.00,,Overcast,150,2012-11-08 03:58:00
7:07 PM,24.8,24.8,100,30.41,8.0,SSE,5.8,-,N/A,,Overcast,150,2012-11-08 04:07:00
7:58 PM,25.0,25.0,100,30.43,8.0,SSE,6.9,-,N/A,,Overcast,160,2012-11-08 04:58:00
8:58 PM,24.1,24.1,100,30.42,9.0,East,5.8,-,N/A,,Overcast,100,2012-11-08 05:58:00
9:58 PM,24.1,24.1,100,30.40,9.0,Calm,Calm,-,N/A,,Overcast,0,2012-11-08 06:58:00
10:58 PM,24.1,24.1,100,30.40,9.0,ENE,4.6,-,N/A,,Overcast,70,2012-11-08 07:58:00
11:58 PM,21.9,21.0,96,30.38,9.0,East,4.6,-,N/A,,Scattered Clouds,90,2012-11-08 08:58:00